Kosmos-2360

operational
NORAD ID: 25406 Int'l Des: 1998-045 Owner: GRUR Country: RU
LEOCIRCULAR

About Kosmos-2360

Description loading...

Live Position

Loading 3D Globe...

Upcoming Passes

Altitude History

Altitude vs Time

uPlot chart will show altitude changes over time

Two-Line Element Set

1 25406U 98045A 26102.93510020 -.00000309 00000-0 -14050-3 0 9991
2 25406 70.7383 56.2681 0004864 72.4300 287.7351 14.12451909428826
Epoch: Apr 12, 2026 • Age: 9 hours

Current Status

Altitude 856.5 km
Velocity 7.43 km/s
Sub-Earth Point 50.80°N, 104.21°W
Launch Date Jul 28, 1998
Age 27.7 years
Type other

Technical Details

Classification Payload
Mass 3250.00 kg
Dry Mass 3250.00 kg
Total Mass 3250.00 kg
Length 4.50 m
Diameter 1.40 m
Span 22.70 m
Shape Cyl + 2 Pan + Ant
Manufacturer YUZHUA
Bus Type Tselina-2
Phase Status Unknown Transfer Status
Owner/State GRUR/RU

Large Constellations

Loading constellations...